This demonstration page uses our WeatherBlox Daily Observations layout. Learn more.

Left ArrowRight Arrow

Hourly Observations for March 22, 2020

Temp ( °F °C ) Dew Point ( °F °C ) Humidity (%) Winds ( mph kmh ) Pressure ( in mb ) Visibility ( mi km ) Precip ( " mm )
12:53 am 00:53 Cloudy 27 -2.8 23 -5 85 85 N N/A 30.16 1022 10 16 N/A
1:53 am 01:53 Cloudy 27 -2.8 23 -5 85 85 N N/A 30.19 1022 10 16 N/A
2:53 am 02:53 Cloudy 28 -2.2 23 -5 81 81 S 5 7 30.18 1022 10 16 N/A
3:53 am 03:53 Cloudy 27 -2.8 23 -5 85 85 SW 3 6 30.16 1021 10 16 N/A
4:53 am 04:53 Mostly Clear 24 -4.4 21 -6.1 88 88 W 7 11 30.15 1021 9 14 N/A
5:53 am 05:53 Cloudy with Mist and Fog 24 -4.4 21 -6.1 88 88 NW 5 7 30.16 1021 6 10 N/A
6:53 am 06:53 Cloudy 23 -5 20 -6.7 88 88 WNW 3 6 30.17 1022 7 11 N/A
7:53 am 07:53 Cloudy 21 -6.1 18 -7.8 88 88 W 5 7 30.18 1022 8 13 N/A
8:53 am 08:53 Cloudy 21 -6.1 18 -7.8 88 88 W 6 9 30.19 1022 10 16 N/A
9:53 am 09:53 Sunny 25 -3.9 20 -6.7 81 81 SW 5 7 30.19 1022 10 16 N/A
10:53 am 10:53 Sunny 29 -1.7 22 -5.6 75 75 S 5 7 30.16 1021 10 16 N/A
11:53 am 11:53 Sunny 33 0.6 23 -5 66 66 SSW 7 11 30.13 1020 10 16 N/A
12:53 pm 12:53 Sunny 35 1.7 24 -4.4 64 64 WSW 14 22 30.11 1020 10 16 N/A
1:53 pm 13:53 Sunny 36 2.2 26 -3.3 67 67 SW 12 19 30.08 1019 10 16 N/A
2:53 pm 14:53 Sunny 38 3.3 28 -2.2 68 68 W 10 17 30.05 1018 10 16 N/A
3:53 pm 15:53 Sunny 38 3.3 28 -2.2 68 68 SW 12 19 30.02 1017 10 16 N/A
4:53 pm 16:53 Sunny 40 4.4 29 -1.7 65 65 SW 8 13 30.01 1016 10 16 N/A
5:53 pm 17:53 Sunny 41 5 28 -2.2 60 60 SW 8 13 29.98 1015 10 16 N/A
6:53 pm 18:53 Sunny 40 4.4 28 -2.2 63 63 SW 3 6 29.98 1015 10 16 N/A
7:53 pm 19:53 Clear 34 1.1 26 -3.3 73 73 ENE 6 9 29.98 1015 10 16 N/A
8:53 pm 20:53 Clear 31 -0.6 25 -3.9 79 79 ESE 5 7 29.96 1015 10 16 N/A
9:53 pm 21:53 Clear 30 -1.1 24 -4.4 79 79 N N/A 29.95 1014 10 16 N/A
10:53 pm 22:53 Clear 30 -1.1 24 -4.4 79 79 N N/A 29.92 1013 10 16 N/A
11:53 pm 23:53 Clear 28 -2.2 24 -4.4 85 85 WNW 3 6 29.90 1013 10 16 N/A

Powered by AerisWeather